Location: Cambronne
(49.3302°N, 2.3993°E)
Time: 06:37:15
(UTC+00:00)

Daily predictions for brighter satellites

Satellite Brightness Start Highest point End
(mag) Time Altitude Azimuth Time Altitude Azimuth Time Altitude Azimuth
Cosmos 1408 3.7 17:26:15 10° SSW 17:29:33 45° WNW 17:32:55 10° N
USA 281 3.5 17:23:54 10° NNE 17:30:29 74° WNW 17:37:01 10° SW
Cosmos 1825 2.1 17:28:11 10° S 17:31:51 68° E 17:35:32 10° NNE
USA 215 3.3 17:26:53 10° ESE 17:33:27 78° NNE 17:40:03 10° WNW
Cosmos 540 Rocket 4.1 17:33:43 10° NNW 17:38:49 64° WSW 17:43:51 10° S
Cosmos 2322 4.4 17:35:48 10° S 17:40:56 35° ESE 17:46:05 10° NE
Cosmos 1892 3.5 17:39:25 10° SSW 17:43:06 54° WNW 17:46:49 10° N
ATLAS 2AS CENTAUR R/B 4.5 17:37:29 10° NW 17:43:43 36° WSW 17:49:38 10° S
Radarsat Rocket 4.3 17:37:42 10° SSE 17:44:00 90° W 17:51:12 10° NNW
Nadezhda 2 Rocket 4.5 17:38:12 10° N 17:44:24 86° E 17:50:30 10° S
Cosmos 1340 2.5 17:43:12 10° N 17:46:53 68° ENE 17:50:32 10° SSE
Cosmos 1844 Rocket 4.0 17:42:13 10° NW 17:47:31 46° WSW 17:52:47 10° S
Lacrosse 4 Rocket 3.5 17:51:45 10° N 17:53:43 13° NNE 17:55:31 10° NE
Cosmos 1461 4.1 17:50:10 10° WSW 17:54:19 43° NW 17:58:39 10° NNE
NOAA 6 4.5 17:49:36 10° S 17:54:44 68° WSW 17:59:56 10° NNW
CZ-4 R/B 2.5 17:51:52 10° ESE 17:55:05 23° ENE 17:58:17 10° NNE
CZ-4 R/B 4.4 17:52:38 10° SSE 17:56:44 76° ENE 18:00:53 10° N
SL-08 R/B 3.8 17:53:48 10° N 17:58:45 71° WNW 18:03:39 10° SSW
PAYLOAD B 4.3 17:54:53 10° SE 18:00:15 57° ENE 18:05:39 10° N
Cosmos 841 Rocket 3.9 17:55:42 10° NNW 18:00:57 69° WSW 18:06:09 10° SSE
Cosmos 1814 Rocket 4.1 17:55:55 10° NNW 18:01:15 63° ENE 18:06:33 10° SE
Cosmos 1869 3.6 18:01:28 10° NNW 18:05:22 70° W 18:09:20 10° S
DMSP B5D2-2 4.3 18:03:34 10° N 18:08:51 74° WNW 18:14:05 10° SSW
Cosmos 2058 4.2 18:06:40 10° SE 18:09:44 20° E 18:12:09 13° NE
PSLV R/B 3.8 18:06:35 10° SSE 18:10:11 52° ENE 18:13:54 10° N
ATLAS 5 CENTAUR R/B 3.6 18:08:13 10° NNW 18:11:19 17° NNE 18:13:56 13° NE
Cosmos 1386 Rocket 4.4 18:06:14 10° N 18:12:17 77° E 18:18:22 10° SSE
Cosmos 2315 Rocket 4.5 18:07:37 10° SSE 18:13:21 37° E 18:19:08 10° NNE
Cosmos 1850 Rocket 4.0 18:08:18 10° SSW 18:13:29 87° WNW 18:18:42 10° NNE
SKYMED 2 3.6 18:09:34 10° NNE 18:13:57 89° WNW 18:18:18 10° SSW
Okean O Rocket 2.2 18:10:58 10° SE 18:14:58 35° ENE 18:19:00 10° N
YAOGAN 1 2.6 18:11:03 10° SSE 18:15:16 57° ENE 18:19:32 10° N
Cosmos 2219 Rocket 2.1 18:10:18 10° SSW 18:15:52 76° ESE 18:21:30 10° NNE
CZ-4B R/B 3.3 18:11:22 10° SE 18:16:38 56° ENE 18:22:01 10° N
BlueWalker 3 1.9 18:12:56 10° WNW 18:16:49 88° SW 18:19:40 18° ESE
Cosmos 1356 3.2 18:16:50 10° N 18:19:50 51° ENE 18:22:49 10° SSE
Cosmos 2360 Rocket 3.0 18:14:29 10° SW 18:20:00 53° NW 18:25:35 10° NNE
Cosmos 1606 2.6 18:17:14 10° N 18:21:04 72° E 18:24:52 10° SSE
Cosmos 2058 Rocket 3.7 18:17:21 10° NNW 18:21:43 59° W 18:26:05 10° S
CZ-4B DEB 4.4 18:16:54 10° SSE 18:22:21 77° WSW 18:27:51 10° NNW
Cosmos-2242 3.3 18:18:32 10° N 18:22:33 40° ENE 18:26:34 10° SE
Cosmos 1745 Rocket 3.9 18:16:40 10° N 18:22:56 84° E 18:29:06 10° S
Lacrosse 5 2.7 18:18:33 10° W 18:23:25 42° NNW 18:27:06 17° NE
Okean 1-7 Rocket 3.6 18:20:13 10° S 18:24:33 57° E 18:28:59 10° NNE
Cosmos 1741 Rocket 4.2 18:19:54 10° SSW 18:25:13 75° WNW 18:30:35 10° NNE
Okean-O 4.1 18:28:31 19° NE 18:28:31 19° NE 18:31:14 10° NNE
BREEZE-M DEB (TANK) 3.9 18:16:35 10° SW 18:30:53 58° SSE 18:33:28 25° E
SOICAL CYLINDER 4.4 18:28:16 10° SSW 18:31:04 55° ESE 18:31:37 44° ENE
Cosmos 2237 Rocket 3.1 18:27:41 10° SSE 18:32:23 27° ESE 18:33:55 24° ENE
NOSS 8 (A) 4.2 18:28:52 10° SSW 18:32:35 68° SE 18:33:43 35° ENE
MINOTAUR 4 R/B 4.1 18:31:48 18° NNE 18:34:06 47° E 18:37:24 10° S
Cosmos 968 Rocket 3.5 18:30:11 10° S 18:35:19 61° ESE 18:40:31 10° NNE
Cosmos 2278 Rocket 2.2 18:30:03 10° NNW 18:35:42 62° ENE 18:41:02 11° SE
SJ-6B 3.5 18:36:32 31° ENE 18:36:50 32° ENE 18:40:26 10° N
Cosmos 2322 Rocket 3.8 18:31:53 10° WSW 18:36:52 32° NW 18:41:54 10° NNE
Cosmos 1709 Rocket 3.8 18:34:25 10° N 18:40:35 75° E 18:46:40 10° SSE
ATLAS CENTAUR R/B 4.0 18:41:32 10° NNW 18:43:04 12° N 18:44:35 10° N
Cosmos 1980 4.3 18:38:32 10° S 18:43:34 34° ESE 18:45:15 29° ENE
Resurs 1-3 4.4 18:44:18 30° ENE 18:44:18 30° ENE 18:47:51 10° N
Cosmos 2208 Rocket 3.9 18:39:31 10° NNW 18:44:43 70° ENE 18:49:55 10° SSE
CSL-04 Debris 4.5 18:42:07 19° SE 18:45:37 43° ENE 18:50:42 10° N
Cosmos 2369 Rocket 3.8 18:42:56 10° N 18:46:23 16° NE 18:46:47 16° NE
CSL-04 Rocket 4.1 18:43:56 25° ESE 18:46:25 40° ENE 18:51:27 10° N
Iridium 2 3.5 18:43:15 10° N 18:46:55 89° WSW 18:50:32 10° S
USA 81 3.9 18:41:47 10° S 18:47:02 81° E 18:52:21 10° N
Cosmos 1943 Rocket 2.9 18:42:10 10° NNW 18:47:21 34° NE 18:48:39 31° ENE
Cosmos 2333 Rocket 3.1 18:44:04 10° SW 18:49:33 49° NW 18:55:05 10° NNE
Cosmos 1570 Rocket 4.0 18:45:26 10° NNW 18:50:49 86° WSW 18:56:09 10° SSE
IGS 5A 3.4 18:52:10 26° SE 18:54:20 60° ENE 18:58:24 10° N
Cosmos 1602 Rocket 3.3 18:50:09 10° S 18:54:27 77° E 18:58:47 10° NNE
Cosmos 1356 Rocket 3.2 18:50:47 10° S 18:54:42 64° E 18:56:49 26° NNE
Cosmos 44 Rocket 4.2 18:51:00 10° WSW 18:55:31 44° NW 18:59:07 16° NNE
SL-16 R/B 4.4 18:52:14 10° W 18:56:24 20° NW 19:00:36 10° N
Cosmos 883 Rocket 4.4 18:53:54 10° S 19:00:12 87° E 19:06:36 10° N
Spot 1 3.8 18:59:32 39° NE 19:00:53 62° ESE 19:04:56 10° S
Cosmos 2074 Rocket 4.3 18:55:03 10° N 19:01:02 43° ENE 19:03:04 33° ESE
COSMO-SKYMED 1 4.4 18:57:52 10° N 19:01:44 32° WNW 19:05:35 10° SW
COSMOS 2428 2.8 18:58:09 10° SSW 19:03:50 79° WNW 19:09:08 12° NNE
Cosmos 2184 Rocket 4.2 18:58:48 10° N 19:04:47 44° ENE 19:06:16 38° ESE
SL-4 R/B 3.7 19:03:40 10° W 19:06:35 24° SW 19:08:15 17° S
Gblst 52 Del rocket 4.1 19:02:42 10° WNW 19:08:17 74° N 19:09:53 47° E
Cosmos 1812 Rocket 3.9 19:05:01 10° NNW 19:09:27 66° W 19:13:50 10° S
Cosmos 1758 Rocket 3.5 19:05:08 10° S 19:09:29 87° W 19:13:55 10° N
NOSS 0 Rocket 3.8 19:03:20 10° SSW 19:09:30 68° ESE 19:13:26 24° NE
Cosmos 1174 4.5 19:07:11 10° SW 19:12:39 70° NW 19:14:32 35° NNE
Landsat 7 3.7 19:15:20 62° E 19:15:41 64° ENE 19:20:23 10° N
USA 215 4.3 19:10:38 10° SSE 19:16:47 42° SW 19:22:58 10° WNW
Cosmos 2154 Rocket 4.3 19:11:28 10° N 19:17:22 42° ENE 19:17:22 42° ENE
Meteor 2-2 Rocket 4.3 19:20:37 10° NNW 19:26:19 80° W 19:32:04 10° S
CZ-4 R/B 2.8 19:25:59 10° SSW 19:29:48 38° W 19:33:34 10° NNW
Lacrosse 4 Rocket 2.7 19:29:07 10° NNW 19:31:44 32° N 19:31:44 32° N
Resurs 01 Rocket 3.7 19:40:04 17° N 19:40:04 17° N 19:41:14 10° N
Cosmos 2221 4.4 19:34:30 10° N 19:36:00 21° N 19:36:00 21° N
Cosmos 2285 Rocket 3.9 19:34:35 10° NNW 19:40:54 65° ENE 19:41:01 65° ENE
Cosmos 2058 4.1 19:42:17 10° SSW 19:46:15 42° WNW 19:48:31 22° NNW
Okean O Rocket 3.5 19:47:28 10° SSW 19:51:20 29° W 19:55:13 10° NW
BlueWalker 3 4.2 19:52:03 10° W 19:54:29 21° WSW 19:54:29 21° WSW
ATLAS 5 CENTAUR R/B 3.2 19:52:12 10° NNW 19:55:18 33° N 19:55:18 33° N
Cosmos 2219 Rocket 4.1 19:55:53 10° W 20:00:26 25° NW 20:04:53 11° N
Cosmos 2297 4.4 19:57:44 10° NNW 20:01:47 44° N 20:01:47 44° N
Okean-O 4.2 20:06:03 31° NW 20:06:03 31° NW 20:08:30 10° NNW
Lacrosse 5 3.2 20:02:36 10° WNW 20:06:18 33° NNW 20:06:18 33° NNW
Cosmos 2237 Rocket 2.7 20:10:28 10° SW 20:15:51 58° WNW 20:15:51 58° WNW
Cosmos 2278 Rocket 4.2 20:14:50 10° NW 20:19:21 25° WSW 20:22:59 13° SSW
Cosmos 909 Rocket 4.2 20:12:34 10° NW 20:19:28 72° WSW 20:19:28 72° WSW
Cosmos 1943 Rocket 3.2 20:25:51 10° NW 20:30:12 44° WNW 20:30:12 44° WNW
Cosmos 2369 Rocket 3.8 20:26:04 10° NNW 20:28:35 27° NNW 20:28:35 27° NNW
BREEZE-M DEB (TANK) 4.4 20:25:26 10° SW 20:39:13 63° SSW 20:39:13 63° SSW
